Location: Ciserano
(45.5833°N, 9.6000°E)
Time: 01:48:32
(UTC+00:00)

FALCON 9 DEB - Pass Details

Date: 21 April 2021
Orbit: 369 x 385 km, 53.0° (Epoch: 10 May)

Event Time Altitude Azimuth Distance (km) Brightness Sun altitude
Rises 19:05:28 0° 200° (SSW) 2,204 6.6 -8.8°
Reaches altitude 10° 19:07:52 10° 181° (S) 1,360 5.4 -9.2°
Maximum altitude 19:10:04 18° 134° (SE) 978 4.3 -9.5°
Enters shadow 19:11:29 14° 100° (E) 1,157 4.7 -9.7°
